,,,PA_Meas_PMT16A,,PR_Meas_QMR101_102,,RH_Meas_QMH101,,SR_Meas_QMS101,,TA_Meas_QMH101,,GenWind,,GenWind,
date,time,status,PA,status,PR,status,RH,status,SR,status,TA,status,DirAvg,status,SpdAvg,
2011-06-28, 00:00:04,VALID,999.706,VALID,0,VALID,89.8235,VALID,0,VALID,23.4671,VALID,25,VALID,1.04414,
2011-06-28, 00:01:04,VALID,999.716,VALID,0,VALID,89.999,VALID,0,VALID,23.4493,VALID,10,VALID,1.18906,
2011-06-28, 00:02:04,VALID,999.712,VALID,0,VALID,90.1668,VALID,0,VALID,23.389,VALID,6,VALID,0.985547,
2011-06-28, 00:03:04,VALID,999.719,VALID,0,VALID,90.4491,VALID,0,VALID,23.4085,VALID,6,VALID,0.883203,
2011-06-28, 00:04:04,VALID,999.768,VALID,0,VALID,90.472,VALID,0,VALID,23.389,VALID,13,VALID,1.19922,
2011-06-28, 00:05:04,VALID,999.764,VALID,0,VALID,90.4339,VALID,0,VALID,23.3695,VALID,19,VALID,0.888281,
2011-06-28, 00:06:04,VALID,999.754,VALID,0,VALID,90.3652,VALID,0,VALID,23.3695,VALID,19,VALID,0.983203,
2011-06-28, 00:07:04,VALID,999.743,VALID,0,VALID,90.2813,VALID,0,VALID,23.389,VALID,29,VALID,0.823047,
2011-06-28, 00:08:04,VALID,999.745,VALID,0,VALID,90.1211,VALID,0,VALID,23.4085,VALID,29,VALID,0.85625,
2011-06-28, 00:09:04,VALID,999.708,VALID,0,VALID,89.938,VALID,0,VALID,23.428,VALID,358,VALID,0.832812,
2011-06-28, 00:10:04,VALID,999.728,VALID,0,VALID,89.6786,VALID,0,VALID,23.4493,VALID,358,VALID,0.528125,
2011-06-28, 00:11:04,VALID,999.731,VALID,0,VALID,89.5489,VALID,0,VALID,23.4085,VALID,358,VALID,0.597656,
2011-06-28, 00:12:04,VALID,999.715,VALID,0,VALID,89.5336,VALID,0,VALID,23.389,VALID,358,VALID,0.428125,
2011-06-28, 00:13:04,VALID,999.71,VALID,0,VALID,89.6709,VALID,0,VALID,23.389,VALID,358,VALID,0.34375,
2011-06-28, 00:14:04,VALID,999.679,VALID,0,VALID,89.8235,VALID,0,VALID,23.3695,VALID,358,VALID,0.246094,
2011-06-28, 00:15:04,VALID,999.682,VALID,0,VALID,89.9456,VALID,0,VALID,23.3695,VALID,358,VALID,0.359375,
2011-06-28, 00:16:04,VALID,999.698,VALID,0,VALID,90.0295,VALID,0,VALID,23.35,VALID,358,VALID,0,
2011-06-28, 00:17:04,VALID,999.666,VALID,0,VALID,90.0295,VALID,0,VALID,23.311,VALID,358,VALID,0.409766,
2011-06-28, 00:18:04,VALID,999.623,VALID,0,VALID,90.0829,VALID,0,VALID,23.3305,VALID,358,VALID,0.270703,
2011-06-28, 00:19:04,VALID,999.65,VALID,0,VALID,90.1363,VALID,0,VALID,23.311,VALID,358,VALID,0.330469,
2011-06-28, 00:20:04,VALID,999.644,VALID,0,VALID,90.1287,VALID,0,VALID,23.2915,VALID,358,VALID,0.227734,
2011-06-28, 00:21:04,VALID,999.621,VALID,0,VALID,90.144,VALID,0,VALID,23.2915,VALID,358,VALID,0.295312,
2011-06-28, 00:22:04,VALID,999.59,VALID,0,VALID,90.2126,VALID,0,VALID,23.311,VALID,358,VALID,0.527734,
2011-06-28, 00:23:04,VALID,999.553,VALID,0,VALID,90.2203,VALID,0,VALID,23.311,VALID,358,VALID,0.471094,
2011-06-28, 00:24:04,VALID,999.561,VALID,0,VALID,90.2203,VALID,0,VALID,23.2915,VALID,358,VALID,0.494531,
2011-06-28, 00:25:04,VALID,999.562,VALID,0,VALID,90.205,VALID,0,VALID,23.2524,VALID,358,VALID,0.459766,
2011-06-28, 00:26:04,VALID,999.557,VALID,0,VALID,90.1287,VALID,0,VALID,23.2329,VALID,358,VALID,0.525391,
2011-06-28, 00:27:04,VALID,999.488,VALID,0,VALID,90.0677,VALID,0,VALID,23.2134,VALID,358,VALID,0.475781,
2011-06-28, 00:28:04,VALID,999.498,VALID,0,VALID,90.1974,VALID,0,VALID,23.2329,VALID,358,VALID,0.586719,
2011-06-28, 00:29:04,VALID,999.474,VALID,0,VALID,90.3805,VALID,0,VALID,23.2524,VALID,358,VALID,0.520703,
2011-06-28, 00:30:04,VALID,999.477,VALID,0,VALID,90.4415,VALID,0,VALID,23.2329,VALID,358,VALID,0.0179687,
2011-06-28, 00:31:04,VALID,999.506,VALID,0,VALID,90.4644,VALID,0,VALID,23.2134,VALID,358,VALID,0.123438,
2011-06-28, 00:32:04,VALID,999.477,VALID,0,VALID,90.5254,VALID,0,VALID,23.2134,VALID,358,VALID,0.642187,
2011-06-28, 00:33:04,VALID,999.462,VALID,0,VALID,90.472,VALID,0,VALID,23.2134,VALID,8,VALID,0.908203,
2011-06-28, 00:34:04,VALID,999.469,VALID,0,VALID,90.4415,VALID,0,VALID,23.1939,VALID,38,VALID,1.16523,
2011-06-28, 00:35:04,VALID,999.463,VALID,0,VALID,90.0982,VALID,0,VALID,23.1549,VALID,38,VALID,1.27969,
2011-06-28, 00:36:04,VALID,999.473,VALID,0,VALID,89.793,VALID,0,VALID,23.1159,VALID,38,VALID,0.884375,
2011-06-28, 00:37:04,VALID,999.488,VALID,0,VALID,89.7701,VALID,0,VALID,23.0769,VALID,38,VALID,0.811719,
2011-06-28, 00:38:04,VALID,999.468,VALID,0,VALID,89.854,VALID,0,VALID,23.0769,VALID,38,VALID,0.839844,
2011-06-28, 00:39:04,VALID,999.483,VALID,0,VALID,89.8769,VALID,0,VALID,23.0769,VALID,45,VALID,1.1082,
2011-06-28, 00:40:04,VALID,999.458,VALID,0,VALID,89.938,VALID,0,VALID,23.0981,VALID,45,VALID,0.8875,
2011-06-28, 00:41:04,VALID,999.461,VALID,0,VALID,89.9227,VALID,0,VALID,23.0786,VALID,45,VALID,0.583984,
2011-06-28, 00:42:04,VALID,999.451,VALID,0,VALID,89.9303,VALID,0,VALID,23.0183,VALID,45,VALID,0.259375,
2011-06-28, 00:43:04,VALID,999.468,VALID,0,VALID,90.0753,VALID,0,VALID,22.9988,VALID,45,VALID,0.260156,
2011-06-28, 00:44:04,VALID,999.446,VALID,0,VALID,90.3042,VALID,0,VALID,22.9793,VALID,45,VALID,0.580469,
2011-06-28, 00:45:04,VALID,999.385,VALID,0,VALID,90.5788,VALID,0,VALID,22.9793,VALID,45,VALID,0.596875,
2011-06-28, 00:46:04,VALID,999.387,VALID,0,VALID,90.7925,VALID,0,VALID,22.9793,VALID,45,VALID,0.414844,
2011-06-28, 00:47:04,VALID,999.373,VALID,0,VALID,90.823,VALID,0,VALID,22.9615,VALID,45,VALID,0.1625,
2011-06-28, 00:48:04,VALID,999.364,VALID,0,VALID,90.8459,VALID,0,VALID,22.9208,VALID,45,VALID,0.166797,
2011-06-28, 00:49:04,VALID,999.329,VALID,0,VALID,90.9832,VALID,0,VALID,22.9208,VALID,45,VALID,0.378516,
2011-06-28, 00:50:04,VALID,999.31,VALID,0,VALID,91.1511,VALID,0,VALID,22.9208,VALID,45,VALID,0.288281,
2011-06-28, 00:51:04,VALID,999.305,VALID,0,VALID,91.2655,VALID,0,VALID,22.9208,VALID,45,VALID,0.248828,
2011-06-28, 00:52:04,VALID,999.274,VALID,0,VALID,91.3342,VALID,0,VALID,22.9403,VALID,45,VALID,0.377344,
2011-06-28, 00:53:04,VALID,999.287,VALID,0,VALID,91.3037,VALID,0,VALID,22.9403,VALID,45,VALID,0.000390625,
2011-06-28, 00:54:04,VALID,999.243,VALID,0,VALID,91.296,VALID,0,VALID,22.9208,VALID,45,VALID,0.410156,
2011-06-28, 00:55:04,VALID,999.24,VALID,0,VALID,91.2884,VALID,0,VALID,22.9225,VALID,45,VALID,0.142969,
2011-06-28, 00:56:04,VALID,999.23,VALID,0,VALID,91.3113,VALID,0,VALID,22.9208,VALID,45,VALID,0.348047,
2011-06-28, 00:57:04,VALID,999.196,VALID,0,VALID,91.3342,VALID,0,VALID,22.9208,VALID,45,VALID,0.571875,
2011-06-28, 00:58:04,VALID,999.217,VALID,0,VALID,91.38,VALID,0,VALID,22.9208,VALID,44,VALID,0.655859,
2011-06-28, 00:59:04,VALID,999.24,VALID,0,VALID,91.4257,VALID,0,VALID,22.9403,VALID,45,VALID,0.442969,
2011-06-28, 01:00:04,VALID,999.238,VALID,0,VALID,91.4028,VALID,0,VALID,22.942,VALID,45,VALID,0.463281,
2011-06-28, 01:01:04,VALID,999.215,VALID,0,VALID,91.4334,VALID,0,VALID,22.9403,VALID,45,VALID,0.34375,
2011-06-28, 01:02:04,VALID,999.242,VALID,0,VALID,91.4563,VALID,0,VALID,22.9403,VALID,45,VALID,0.585938,
2011-06-28, 01:03:04,VALID,999.229,VALID,0,VALID,91.4563,VALID,0,VALID,22.9208,VALID,45,VALID,0.291016,
2011-06-28, 01:04:04,VALID,999.207,VALID,0,VALID,91.4715,VALID,0,VALID,22.9208,VALID,45,VALID,0,
2011-06-28, 01:05:04,VALID,999.192,VALID,0,VALID,91.4486,VALID,0,VALID,22.9208,VALID,45,VALID,0.533984,
2011-06-28, 01:06:04,VALID,999.149,VALID,0,VALID,91.4563,VALID,0,VALID,22.9208,VALID,45,VALID,0.967969,
2011-06-28, 01:07:04,VALID,999.136,VALID,0,VALID,91.4486,VALID,0,VALID,22.9013,VALID,47,VALID,1.16094,
2011-06-28, 01:08:04,VALID,999.162,VALID,0,VALID,91.4028,VALID,0,VALID,22.9208,VALID,59,VALID,1.23125,
2011-06-28, 01:09:04,VALID,999.163,VALID,0,VALID,91.2274,VALID,0,VALID,22.9013,VALID,85,VALID,1.45703,
2011-06-28, 01:10:04,VALID,999.122,VALID,0,VALID,91.1053,VALID,0,VALID,22.8623,VALID,93,VALID,1.46758,
2011-06-28, 01:11:04,VALID,999.095,VALID,0,VALID,91.2884,VALID,0,VALID,22.9013,VALID,77,VALID,1.06016,
2011-06-28, 01:12:04,VALID,999.097,VALID,0,VALID,91.4181,VALID,0,VALID,22.8818,VALID,77,VALID,0.444141,
2011-06-28, 01:13:04,VALID,999.081,VALID,0,VALID,91.441,VALID,0,VALID,22.8623,VALID,77,VALID,0.530859,
2011-06-28, 01:14:04,VALID,999.042,VALID,0,VALID,91.5249,VALID,0,VALID,22.8623,VALID,123,VALID,1.31641,
2011-06-28, 01:15:04,VALID,999.044,VALID,0,VALID,91.6775,VALID,0,VALID,22.8623,VALID,130,VALID,0.896484,
2011-06-28, 01:16:04,VALID,998.992,VALID,0,VALID,91.7691,VALID,0,VALID,22.88,VALID,130,VALID,0.397656,
2011-06-28, 01:17:04,VALID,999.008,VALID,0,VALID,91.7614,VALID,0,VALID,22.8605,VALID,130,VALID,0.573828,
2011-06-28, 01:18:04,VALID,999.01,VALID,0,VALID,91.7157,VALID,0,VALID,22.8623,VALID,130,VALID,0.463281,
2011-06-28, 01:19:04,VALID,998.986,VALID,0,VALID,91.6851,VALID,0,VALID,22.8623,VALID,130,VALID,0.410937,
2011-06-28, 01:20:04,VALID,998.982,VALID,0,VALID,91.6394,VALID,0,VALID,22.8623,VALID,130,VALID,0.526563,
2011-06-28, 01:21:04,VALID,998.958,VALID,0,VALID,91.6317,VALID,0,VALID,22.8818,VALID,130,VALID,0.552734,
2011-06-28, 01:22:04,VALID,998.924,VALID,0,VALID,91.7157,VALID,0,VALID,22.8818,VALID,130,VALID,0.210547,
2011-06-28, 01:23:04,VALID,998.904,VALID,0,VALID,91.7233,VALID,0,VALID,22.9208,VALID,130,VALID,0.345313,
2011-06-28, 01:24:04,VALID,998.889,VALID,0,VALID,91.7157,VALID,0,VALID,22.9013,VALID,130,VALID,0.694531,
2011-06-28, 01:25:04,VALID,998.845,VALID,0,VALID,91.7309,VALID,0,VALID,22.9208,VALID,125,VALID,0.520703,
2011-06-28, 01:26:04,VALID,998.839,VALID,0,VALID,91.7614,VALID,0,VALID,22.9208,VALID,96,VALID,0.801953,
2011-06-28, 01:27:04,VALID,998.833,VALID,0,VALID,91.6775,VALID,0,VALID,22.9013,VALID,96,VALID,0.618359,
2011-06-28, 01:28:04,VALID,998.771,VALID,0,VALID,91.6851,VALID,0,VALID,22.9208,VALID,109,VALID,1.01328,
2011-06-28, 01:29:04,VALID,998.739,VALID,0,VALID,91.7004,VALID,0,VALID,22.9208,VALID,109,VALID,0.726563,
2011-06-28, 01:30:04,VALID,998.766,VALID,0,VALID,91.7004,VALID,0,VALID,22.9208,VALID,109,VALID,0.312891,
2011-06-28, 01:31:04,VALID,998.725,VALID,0,VALID,91.647,VALID,0,VALID,22.9013,VALID,109,VALID,0.0542969,
2011-06-28, 01:32:04,VALID,998.742,VALID,0,VALID,91.6012,VALID,0,VALID,22.88,VALID,109,VALID,0.165625,
2011-06-28, 01:33:04,VALID,998.722,VALID,0,VALID,91.5631,VALID,0,VALID,22.8623,VALID,109,VALID,0.343359,
2011-06-28, 01:34:04,VALID,998.706,VALID,0,VALID,91.5783,VALID,0,VALID,22.8215,VALID,109,VALID,0.504687,
2011-06-28, 01:35:04,VALID,998.705,VALID,0,VALID,91.5554,VALID,0,VALID,22.8427,VALID,109,VALID,0.546484,
2011-06-28, 01:36:04,VALID,998.705,VALID,0,VALID,91.5326,VALID,0,VALID,22.8037,VALID,82,VALID,0.540625,
2011-06-28, 01:37:04,VALID,998.678,VALID,0,VALID,91.4868,VALID,0,VALID,22.7842,VALID,82,VALID,0.587109,
2011-06-28, 01:38:04,VALID,998.676,VALID,0,VALID,91.502,VALID,0,VALID,22.7842,VALID,82,VALID,0.713672,
2011-06-28, 01:39:04,VALID,998.677,VALID,0,VALID,91.3723,VALID,0,VALID,22.7452,VALID,82,VALID,0.832812,
2011-06-28, 01:40:04,VALID,998.651,VALID,0,VALID,91.4563,VALID,0,VALID,22.7452,VALID,81,VALID,0.935547,
2011-06-28, 01:41:04,VALID,998.667,VALID,0,VALID,91.5173,VALID,0,VALID,22.7647,VALID,81,VALID,0.719531,
2011-06-28, 01:42:04,VALID,998.665,VALID,0,VALID,91.5631,VALID,0,VALID,22.7842,VALID,80,VALID,0.814453,
2011-06-28, 01:43:04,VALID,998.634,VALID,0,VALID,91.5097,VALID,0,VALID,22.7435,VALID,80,VALID,0.423438,
2011-06-28, 01:44:04,VALID,998.6,VALID,0,VALID,91.441,VALID,0,VALID,22.7257,VALID,80,VALID,0.378516,
2011-06-28, 01:45:04,VALID,998.597,VALID,0,VALID,91.38,VALID,0,VALID,22.7257,VALID,80,VALID,0.133594,
2011-06-28, 01:46:04,VALID,998.566,VALID,0,VALID,91.3494,VALID,0,VALID,22.6867,VALID,80,VALID,0.00507812,
2011-06-28, 01:47:04,VALID,998.538,VALID,0,VALID,91.4105,VALID,0,VALID,22.7079,VALID,80,VALID,0.714063,
2011-06-28, 01:48:04,VALID,998.521,VALID,0,VALID,91.5249,VALID,0,VALID,22.7062,VALID,64,VALID,0.821094,
2011-06-28, 01:49:04,VALID,998.537,VALID,0,VALID,91.6088,VALID,0,VALID,22.7062,VALID,64,VALID,0.894531,
2011-06-28, 01:50:04,VALID,998.495,VALID,0,VALID,91.6546,VALID,0,VALID,22.7045,VALID,64,VALID,0.942578,
2011-06-28, 01:51:04,VALID,998.484,VALID,0,VALID,91.6699,VALID,0,VALID,22.7647,VALID,64,VALID,0.616406,
2011-06-28, 01:52:04,VALID,998.467,VALID,0,VALID,91.5783,VALID,0,VALID,22.7452,VALID,64,VALID,0.171094,
2011-06-28, 01:53:04,VALID,998.415,VALID,0,VALID,91.5326,VALID,0,VALID,22.7452,VALID,64,VALID,0.622656,
2011-06-28, 01:54:04,VALID,998.408,VALID,0,VALID,91.586,VALID,0,VALID,22.7647,VALID,42,VALID,0.784766,
2011-06-28, 01:55:04,VALID,998.399,VALID,0,VALID,91.5249,VALID,0,VALID,22.7842,VALID,17,VALID,0.833203,
2011-06-28, 01:56:04,VALID,998.385,VALID,0,VALID,91.3494,VALID,0,VALID,22.7842,VALID,343,VALID,0.813281,
2011-06-28, 01:57:04,VALID,998.32,VALID,0,VALID,91.1511,VALID,0,VALID,22.7435,VALID,320,VALID,1.0418,
2011-06-28, 01:58:04,VALID,998.345,VALID,0,VALID,91.1053,VALID,0,VALID,22.7452,VALID,315,VALID,0.944141,
2011-06-28, 01:59:04,VALID,998.337,VALID,0,VALID,91.1511,VALID,0,VALID,22.7452,VALID,315,VALID,0.829297,
2011-06-28, 02:00:04,VALID,998.28,VALID,0,VALID,91.296,VALID,0,VALID,22.7647,VALID,315,VALID,0.761719,
2011-06-28, 02:01:04,VALID,998.291,VALID,0,VALID,91.3723,VALID,0,VALID,22.7842,VALID,315,VALID,0.705859,
2011-06-28, 02:02:04,VALID,998.302,VALID,0,VALID,91.3418,VALID,0,VALID,22.7647,VALID,315,VALID,0.255859,
2011-06-28, 02:03:04,VALID,998.252,VALID,0,VALID,91.3037,VALID,0,VALID,22.786,VALID,315,VALID,0.412891,
2011-06-28, 02:04:04,VALID,998.18,VALID,0,VALID,91.3037,VALID,0,VALID,22.7647,VALID,315,VALID,0.520312,
2011-06-28, 02:05:04,VALID,998.23,VALID,0,VALID,91.2731,VALID,0,VALID,22.7647,VALID,315,VALID,0.410547,
2011-06-28, 02:06:04,VALID,998.257,VALID,0,VALID,91.2579,VALID,0,VALID,22.7452,VALID,315,VALID,0.167187,
2011-06-28, 02:07:04,VALID,998.221,VALID,0,VALID,91.2045,VALID,0,VALID,22.7257,VALID,353,VALID,0.904688,
2011-06-28, 02:08:04,VALID,998.207,VALID,0,VALID,91.1129,VALID,0,VALID,22.7062,VALID,2,VALID,0.112109,
2011-06-28, 02:09:04,VALID,998.192,VALID,0,VALID,91.0214,VALID,0,VALID,22.6884,VALID,2,VALID,0.882422,
2011-06-28, 02:10:04,VALID,998.207,VALID,0,VALID,91.0519,VALID,0,VALID,22.646,VALID,2,VALID,0.740625,
2011-06-28, 02:11:04,VALID,998.134,VALID,0,VALID,91.174,VALID,0,VALID,22.685,VALID,2,VALID,0.554297,
2011-06-28, 02:12:04,VALID,998.152,VALID,0,VALID,91.1282,VALID,0,VALID,22.7647,VALID,2,VALID,0.261328,
2011-06-28, 02:13:04,VALID,998.152,VALID,0,VALID,90.9603,VALID,0,VALID,22.7452,VALID,2,VALID,0,
2011-06-28, 02:14:04,VALID,998.153,VALID,0,VALID,90.8306,VALID,0,VALID,22.7452,VALID,2,VALID,0.304688,
2011-06-28, 02:15:04,VALID,998.14,VALID,0,VALID,90.8306,VALID,0,VALID,22.7664,VALID,2,VALID,0.222266,
2011-06-28, 02:16:04,VALID,998.132,VALID,0,VALID,90.9222,VALID,0,VALID,22.7842,VALID,2,VALID,0.290625,
2011-06-28, 02:17:04,VALID,998.175,VALID,0,VALID,91.0443,VALID,0,VALID,22.8037,VALID,2,VALID,0.00585938,
2011-06-28, 02:18:04,VALID,998.148,VALID,0,VALID,90.6704,VALID,0,VALID,22.7257,VALID,53,VALID,0.455469,
2011-06-28, 02:19:04,VALID,998.158,VALID,0,VALID,90.678,VALID,0,VALID,22.7079,VALID,53,VALID,0.172266,
2011-06-28, 02:20:04,VALID,998.135,VALID,0,VALID,90.8077,VALID,0,VALID,22.7062,VALID,53,VALID,0.344922,
2011-06-28, 02:21:04,VALID,998.124,VALID,0,VALID,90.9146,VALID,0,VALID,22.7257,VALID,53,VALID,0.0972656,
2011-06-28, 02:22:04,VALID,998.079,VALID,0,VALID,90.8764,VALID,0,VALID,22.7274,VALID,53,VALID,0,
2011-06-28, 02:23:04,VALID,998.095,VALID,0,VALID,90.8535,VALID,0,VALID,22.7062,VALID,53,VALID,0.553125,
2011-06-28, 02:24:04,VALID,998.065,VALID,0,VALID,90.968,VALID,0,VALID,22.786,VALID,53,VALID,0.610156,
2011-06-28, 02:25:04,VALID,998.066,VALID,0,VALID,90.9069,VALID,0,VALID,22.8232,VALID,53,VALID,0.64375,
2011-06-28, 02:26:04,VALID,998.046,VALID,0,VALID,90.6323,VALID,0,VALID,22.88,VALID,123,VALID,1.08203,
2011-06-28, 02:27:04,VALID,998.041,VALID,0,VALID,90.1821,VALID,0,VALID,22.9598,VALID,131,VALID,1.37539,
2011-06-28, 02:28:04,VALID,998.015,VALID,0,VALID,89.4954,VALID,0,VALID,23.0573,VALID,123,VALID,1.4582,
2011-06-28, 02:29:04,VALID,998.03,VALID,0,VALID,88.8546,VALID,0,VALID,23.0964,VALID,122,VALID,1.4668,
2011-06-28, 02:30:04,VALID,998.015,VALID,0,VALID,88.5036,VALID,0,VALID,23.1549,VALID,122,VALID,1.40156,
2011-06-28, 02:31:04,VALID,998.025,VALID,0,VALID,88.4349,VALID,0,VALID,23.1531,VALID,130,VALID,1.37539,
2011-06-28, 02:32:04,VALID,998.025,VALID,0,VALID,88.2747,VALID,0,VALID,23.1744,VALID,132,VALID,1.38828,
2011-06-28, 02:33:04,VALID,998.001,VALID,0,VALID,88.3663,VALID,0,VALID,23.1939,VALID,132,VALID,1.1625,
2011-06-28, 02:34:04,VALID,998.01,VALID,0,VALID,88.3434,VALID,0,VALID,23.1744,VALID,125,VALID,1.16719,
2011-06-28, 02:35:04,VALID,998.035,VALID,0,VALID,88.4273,VALID,0,VALID,23.1744,VALID,129,VALID,1.36992,
2011-06-28, 02:36:04,VALID,998.046,VALID,0,VALID,88.4044,VALID,0,VALID,23.1744,VALID,127,VALID,1.66328,
2011-06-28, 02:37:04,VALID,998.072,VALID,0,VALID,88.4197,VALID,0,VALID,23.1939,VALID,131,VALID,1.5125,
2011-06-28, 02:38:04,VALID,998.021,VALID,0,VALID,88.3434,VALID,0,VALID,23.2329,VALID,123,VALID,1.1457,
2011-06-28, 02:39:04,VALID,998.026,VALID,0,VALID,88.1832,VALID,0,VALID,23.2524,VALID,115,VALID,0.925781,
2011-06-28, 02:40:04,VALID,998.037,VALID,0,VALID,88.1755,VALID,0,VALID,23.2719,VALID,134,VALID,1.71172,
2011-06-28, 02:41:04,VALID,998.054,VALID,0,VALID,87.9314,VALID,0,VALID,23.3305,VALID,125,VALID,1.37227,
2011-06-28, 02:42:04,VALID,998.079,VALID,0,VALID,87.672,VALID,0,VALID,23.3695,VALID,128,VALID,1.23008,
2011-06-28, 02:43:04,VALID,998.056,VALID,0,VALID,87.5575,VALID,0,VALID,23.389,VALID,136,VALID,1.15391,
2011-06-28, 02:44:04,VALID,998.049,VALID,0,VALID,87.527,VALID,0,VALID,23.389,VALID,142,VALID,1.09219,
2011-06-28, 02:45:04,VALID,998.046,VALID,0,VALID,87.5499,VALID,0,VALID,23.389,VALID,142,VALID,0.782422,
2011-06-28, 02:46:04,VALID,998.028,VALID,0,VALID,87.5423,VALID,0,VALID,23.4103,VALID,145,VALID,0.95625,
2011-06-28, 02:47:04,VALID,998.009,VALID,0,VALID,87.5804,VALID,0,VALID,23.389,VALID,145,VALID,0.696094,
2011-06-28, 02:48:04,VALID,997.965,VALID,0,VALID,87.4736,VALID,0,VALID,23.4103,VALID,145,VALID,0.296875,
2011-06-28, 02:49:04,VALID,998,VALID,0,VALID,87.527,VALID,0,VALID,23.3713,VALID,145,VALID,0.0226563,
2011-06-28, 02:50:04,VALID,998.009,VALID,0,VALID,87.6491,VALID,0,VALID,23.35,VALID,145,VALID,0.259766,
2011-06-28, 02:51:04,VALID,998.042,VALID,0,VALID,87.6033,VALID,0,VALID,23.3305,VALID,145,VALID,0,
2011-06-28, 02:52:04,VALID,998.002,VALID,0,VALID,87.7254,VALID,0,VALID,23.2915,VALID,145,VALID,0,
2011-06-28, 02:53:04,VALID,998.044,VALID,0,VALID,87.794,VALID,0,VALID,23.2932,VALID,145,VALID,0,
2011-06-28, 02:54:04,VALID,998.05,VALID,0,VALID,87.9009,VALID,0,VALID,23.2329,VALID,145,VALID,0.634766,
2011-06-28, 02:55:04,VALID,997.995,VALID,0,VALID,88.2442,VALID,0,VALID,23.1939,VALID,33,VALID,0.729688,
2011-06-28, 02:56:04,VALID,997.976,VALID,0,VALID,88.6409,VALID,0,VALID,23.1159,VALID,1,VALID,0.781641,
2011-06-28, 02:57:04,VALID,998.012,VALID,0,VALID,89.0606,VALID,0,VALID,23.0573,VALID,1,VALID,0.596094,
2011-06-28, 02:58:04,VALID,998.026,VALID,0,VALID,89.2437,VALID,0,VALID,22.9598,VALID,1,VALID,0.200391,
2011-06-28, 02:59:04,VALID,997.964,VALID,0,VALID,89.5946,VALID,0,VALID,22.9013,VALID,1,VALID,0.442187,
2011-06-28, 03:00:04,VALID,997.973,VALID,0,VALID,89.9914,VALID,0,VALID,22.9013,VALID,1,VALID,0.392188,
2011-06-28, 03:01:04,VALID,997.976,VALID,0,VALID,90.205,VALID,0,VALID,22.9013,VALID,1,VALID,0.587891,
2011-06-28, 03:02:04,VALID,997.94,VALID,0,VALID,90.3576,VALID,0,VALID,22.9208,VALID,1,VALID,0.404687,
2011-06-28, 03:03:04,VALID,997.91,VALID,0,VALID,90.4339,VALID,0,VALID,22.9403,VALID,1,VALID,0.253125,
2011-06-28, 03:04:04,VALID,997.935,VALID,0,VALID,90.4797,VALID,0,VALID,22.9793,VALID,1,VALID,0.215234,
2011-06-28, 03:05:04,VALID,997.876,VALID,0,VALID,90.3881,VALID,0,VALID,23.0183,VALID,1,VALID,0.323047,
2011-06-28, 03:06:04,VALID,997.919,VALID,0,VALID,90.2203,VALID,0,VALID,23.0396,VALID,280,VALID,0.890234,
2011-06-28, 03:07:04,VALID,997.883,VALID,0,VALID,90.1211,VALID,0,VALID,23.0183,VALID,272,VALID,0.685938,
2011-06-28, 03:08:04,VALID,997.926,VALID,0,VALID,90.0829,VALID,0,VALID,23.0378,VALID,272,VALID,0.360547,
2011-06-28, 03:09:04,VALID,997.887,VALID,0,VALID,89.9609,VALID,0,VALID,23.0378,VALID,272,VALID,0.120703,
2011-06-28, 03:10:04,VALID,997.884,VALID,0,VALID,89.7396,VALID,0,VALID,22.9598,VALID,272,VALID,0.415625,
2011-06-28, 03:11:04,VALID,997.902,VALID,0,VALID,89.7167,VALID,0.112286,VALID,22.9208,VALID,272,VALID,0.260156,
2011-06-28, 03:12:04,VALID,997.868,VALID,0,VALID,89.9609,VALID,0,VALID,22.8818,VALID,272,VALID,0.200781,
2011-06-28, 03:13:04,VALID,997.85,VALID,0,VALID,90.0677,VALID,0,VALID,22.8623,VALID,272,VALID,0.223438,
2011-06-28, 03:14:04,VALID,997.861,VALID,0,VALID,90.0677,VALID,0,VALID,22.7825,VALID,272,VALID,0.157813,
2011-06-28, 03:15:04,VALID,997.821,VALID,0,VALID,90.3881,VALID,0,VALID,22.7842,VALID,272,VALID,0,
2011-06-28, 03:16:04,VALID,997.84,VALID,0,VALID,90.4873,VALID,0,VALID,22.7647,VALID,272,VALID,0,
2011-06-28, 03:17:04,VALID,997.828,VALID,0,VALID,90.4644,VALID,0,VALID,22.7452,VALID,272,VALID,0.194141,
2011-06-28, 03:18:04,VALID,997.815,VALID,0,VALID,90.5941,VALID,0,VALID,22.7257,VALID,272,VALID,0.442578,
2011-06-28, 03:19:04,VALID,997.835,VALID,0,VALID,90.8764,VALID,0,VALID,22.7469,VALID,272,VALID,0.628516,
2011-06-28, 03:20:04,VALID,997.851,VALID,0,VALID,91.0366,VALID,0,VALID,22.7842,VALID,272,VALID,0.349609,
2011-06-28, 03:21:04,VALID,997.842,VALID,0,VALID,90.823,VALID,0,VALID,22.8055,VALID,272,VALID,0.168359,
2011-06-28, 03:22:04,VALID,997.857,VALID,0,VALID,90.7772,VALID,0,VALID,22.8037,VALID,272,VALID,0.567969,
2011-06-28, 03:23:04,VALID,997.87,VALID,0,VALID,90.8154,VALID,0,VALID,22.7842,VALID,273,VALID,0.777344,
2011-06-28, 03:24:04,VALID,997.861,VALID,0,VALID,90.8917,VALID,0,VALID,22.7647,VALID,273,VALID,0.480469,
2011-06-28, 03:25:04,VALID,997.878,VALID,0,VALID,90.968,VALID,0,VALID,22.7647,VALID,273,VALID,0.322656,
2011-06-28, 03:26:04,VALID,997.893,VALID,0,VALID,91.0595,VALID,0,VALID,22.7452,VALID,273,VALID,0.366016,
2011-06-28, 03:27:04,VALID,997.873,VALID,0,VALID,91.1282,VALID,0,VALID,22.685,VALID,273,VALID,0.461328,
2011-06-28, 03:28:04,VALID,997.854,VALID,0,VALID,91.1816,VALID,0,VALID,22.6655,VALID,273,VALID,0.633203,
2011-06-28, 03:29:04,VALID,997.853,VALID,0,VALID,91.2045,VALID,0,VALID,22.6477,VALID,273,VALID,0.744922,
2011-06-28, 03:30:04,VALID,997.861,VALID,0,VALID,91.2426,VALID,0,VALID,22.5892,VALID,304,VALID,0.473437,
2011-06-28, 03:31:04,VALID,997.867,VALID,0,VALID,91.174,VALID,0.112286,VALID,22.5696,VALID,304,VALID,0.0046875,
2011-06-28, 03:32:04,VALID,997.805,VALID,0,VALID,91.1511,VALID,0.112286,VALID,22.5111,VALID,303,VALID,0,
2011-06-28, 03:33:04,VALID,997.771,VALID,0,VALID,91.1587,VALID,0,VALID,22.4721,VALID,304,VALID,0.739453,
2011-06-28, 03:34:04,VALID,997.74,VALID,0,VALID,91.4257,VALID,0,VALID,22.4916,VALID,7,VALID,1.03945,
2011-06-28, 03:35:04,VALID,997.725,VALID,0,VALID,91.6699,VALID,0,VALID,22.4704,VALID,44,VALID,1.42227,
2011-06-28, 03:36:04,VALID,997.7,VALID,0,VALID,91.8683,VALID,0,VALID,22.4721,VALID,44,VALID,1.6582,
2011-06-28, 03:37:04,VALID,997.699,VALID,0,VALID,91.7996,VALID,0,VALID,22.3924,VALID,46,VALID,1.89844,
2011-06-28, 03:38:04,VALID,997.669,VALID,0,VALID,91.6241,VALID,0,VALID,22.3746,VALID,49,VALID,1.6918,
2011-06-28, 03:39:04,VALID,997.648,VALID,0,VALID,91.4944,VALID,0,VALID,22.3161,VALID,48,VALID,1.73164,
2011-06-28, 03:40:04,VALID,997.613,VALID,0,VALID,91.5173,VALID,0,VALID,22.2559,VALID,54,VALID,1.79336,
2011-06-28, 03:41:04,VALID,997.664,VALID,0,VALID,91.6165,VALID,0,VALID,22.2559,VALID,52,VALID,1.61289,
2011-06-28, 03:42:04,VALID,997.618,VALID,0,VALID,91.7309,VALID,0.112286,VALID,22.2169,VALID,58,VALID,1.28945,
2011-06-28, 03:43:04,VALID,997.624,VALID,0,VALID,91.8759,VALID,0.112286,VALID,22.2381,VALID,55,VALID,1.32305,
2011-06-28, 03:44:04,VALID,997.623,VALID,0,VALID,91.998,VALID,0,VALID,22.1974,VALID,55,VALID,1.22539,
2011-06-28, 03:45:04,VALID,997.636,VALID,0,VALID,92.1429,VALID,0,VALID,22.2186,VALID,55,VALID,1.04375,
2011-06-28, 03:46:04,VALID,997.681,VALID,0,VALID,92.2116,VALID,0,VALID,22.199,VALID,49,VALID,1.05156,